Location: Ingoldesthorpe
(52.8667°N, 0.5167°E)
Time: 21:05:37
(UTC+00:00)

SL-8 Rocket - Pass Details

Date: 19 May 2025
Orbit: 955 x 990 km, 82.9° (Epoch: 21 June)

Event Time Altitude Azimuth Distance (km) Brightness Sun altitude
Rises 21:14:49 0° 349° (N) 3,659 8.3 -9.4°
Reaches altitude 10° 21:17:20 10° 349° (N) 2,705 7.5 -9.6°
Maximum altitude 21:23:32 90° 57° (ENE) 965 4.0 -10.2°
Drops below altitude 10° 21:29:41 10° 172° (S) 2,681 5.8 -10.7°
Enters shadow 21:29:41 10° 172° (S) 2,685 5.8 -10.7°
